| time (UTC) | temp F | wind direction | speed MPH | gust MPH | rain 1hr in | rain 24hr in | rain mn in | humidity % | barometer mb |
| 20260504234553 | 64 | 130 | 5.0 | 9.0 | 0.00 | 0.00 | 0.00 | 43 | 1008.0 |
| 20260504233035 | 65 | 179 | 3.0 | 9.0 | 0.00 | 0.00 | 0.00 | 43 | 1008.0 |
| 20260504231545 | 65 | 152 | 2.0 | 11.0 | 0.00 | 0.00 | 0.00 | 42 | 1007.8 |
| 20260504230034 | 66 | 165 | 4.0 | 12.0 | 0.00 | 0.00 | 0.00 | 40 | 1007.7 |
| 20260504224532 | 67 | 151 | 5.0 | 13.0 | 0.00 | 0.00 | 0.00 | 39 | 1007.6 |
| 20260504223031 | 67 | 158 | 5.0 | 10.0 | 0.00 | 0.00 | 0.00 | 38 | 1007.5 |
| 20260504221530 | 68 | 136 | 4.0 | 12.0 | 0.00 | 0.00 | 0.00 | 37 | 1007.7 |
| 20260504220028 | 69 | 210 | 3.0 | 14.0 | 0.00 | 0.00 | 0.00 | 36 | 1007.7 |
| 20260504214535 | 69 | 230 | 6.0 | 16.0 | 0.00 | 0.00 | 0.00 | 35 | 1007.8 |
| 20260504213029 | 69 | 213 | 5.0 | 14.0 | 0.00 | 0.00 | 0.00 | 35 | 1007.8 |
| 20260504211525 | 69 | 251 | 4.0 | 9.0 | 0.00 | 0.00 | 0.00 | 35 | 1008.0 |
| 20260504210023 | 68 | 227 | 3.0 | 13.0 | 0.00 | 0.00 | 0.00 | 35 | 1008.0 |
| 20260504204549 | 68 | 115 | 5.0 | 10.0 | 0.00 | 0.00 | 0.00 | 36 | 1008.2 |
| 20260504203019 | 68 | 213 | 3.0 | 11.0 | 0.00 | 0.00 | 0.00 | 35 | 1008.4 |
| 20260504201517 | 68 | 159 | 5.0 | 12.0 | 0.00 | 0.00 | 0.00 | 36 | 1008.5 |
| 20260504200016 | 69 | 211 | 2.0 | 13.0 | 0.00 | 0.00 | 0.00 | 33 | 1008.6 |
| 20260504194513 | 69 | 147 | 6.0 | 12.0 | 0.00 | 0.00 | 0.00 | 34 | 1008.7 |
| 20260504193020 | 68 | 155 | 4.0 | 11.0 | 0.00 | 0.00 | 0.00 | 34 | 1008.9 |
| 20260504191510 | 67 | 182 | 7.0 | 14.0 | 0.00 | 0.00 | 0.00 | 36 | 1009.2 |
| 20260504190010 | 68 | 222 | 6.0 | 12.0 | 0.00 | 0.00 | 0.00 | 35 | 1009.2 |
| 20260504184506 | 69 | 165 | 5.0 | 12.0 | 0.00 | 0.00 | 0.00 | 34 | 1009.6 |
| 20260504183005 | 69 | 234 | 4.0 | 13.0 | 0.00 | 0.00 | 0.00 | 33 | 1009.5 |
| 20260504181504 | 68 | 201 | 4.0 | 14.0 | 0.00 | 0.00 | 0.00 | 35 | 1009.6 |
| 20260504180003 | 69 | 192 | 6.0 | 15.0 | 0.00 | 0.00 | 0.00 | 33 | 1009.7 |
| 20260504174501 | 68 | 134 | 7.0 | 16.0 | 0.00 | 0.00 | 0.00 | 34 | 1010.0 |
| 20260504173018 | 69 | 132 | 5.0 | 12.0 | 0.00 | 0.00 | 0.00 | 32 | 1009.9 |
| 20260504171541 | 67 | 168 | 3.0 | 7.0 | 0.00 | 0.00 | 0.00 | 34 | 1010.1 |
| 20260504081504 | 38 | 242 | 0.0 | 0.0 | 0.00 | 0.00 | 0.00 | 76 | 1013.0 |
| 20260504044548 | 41 | 243 | 0.0 | 0.0 | 0.00 | 0.00 | 0.00 | 72 | 1012.9 |
| 20260504043047 | 41 | 243 | 0.0 | 0.0 | 0.00 | 0.00 | 0.00 | 72 | 1012.7 |
| 20260504041542 | 42 | 243 | 0.0 | 0.0 | 0.00 | 0.00 | 0.00 | 70 | 1012.6 |
| 20260504040041 | 42 | 243 | 0.0 | 0.0 | 0.00 | 0.00 | 0.00 | 66 | 1012.5 |
| 20260504034541 | 42 | 243 | 0.0 | 1.0 | 0.00 | 0.00 | 0.00 | 62 | 1012.4 |
| 20260504033038 | 43 | 243 | 0.0 | 1.0 | 0.00 | 0.00 | 0.00 | 61 | 1012.4 |
| 20260504031537 | 44 | 243 | 0.0 | 1.0 | 0.00 | 0.00 | 0.00 | 59 | 1012.4 |
| 20260504030041 | 45 | 243 | 0.0 | 1.0 | 0.00 | 0.00 | 0.00 | 59 | 1012.3 |
| 20260504024536 | 45 | 243 | 0.0 | 1.0 | 0.00 | 0.00 | 0.00 | 56 | 1012.4 |
| 20260504023035 | 46 | 243 | 0.0 | 3.0 | 0.00 | 0.00 | 0.00 | 54 | 1012.4 |
| 20260504021535 | 46 | 244 | 0.0 | 1.0 | 0.00 | 0.00 | 0.00 | 51 | 1012.4 |
| 20260504020037 | 46 | 244 | 0.0 | 2.0 | 0.00 | 0.00 | 0.00 | 51 | 1012.4 |
| 20260504014543 | 47 | 238 | 0.0 | 2.0 | 0.00 | 0.00 | 0.00 | 51 | 1012.3 |
| 20260504013034 | 47 | 238 | 0.0 | 2.0 | 0.00 | 0.00 | 0.00 | 50 | 1012.0 |
| 20260504011535 | 48 | 238 | 0.0 | 2.0 | 0.00 | 0.00 | 0.00 | 49 | 1012.1 |
| 20260504010033 | 49 | 238 | 0.0 | 3.0 | 0.00 | 0.00 | 0.00 | 48 | 1011.9 |
| 20260504004532 | 50 | 238 | 0.0 | 2.0 | 0.00 | 0.00 | 0.00 | 47 | 1011.8 |
| 20260504003031 | 51 | 238 | 0.0 | 2.0 | 0.00 | 0.00 | 0.00 | 44 | 1011.7 |
| 20260504001533 | 51 | 238 | 1.0 | 3.0 | 0.00 | 0.00 | 0.00 | 42 | 1011.5 |
| 20260504000030 | 52 | 238 | 2.0 | 5.0 | 0.00 | 0.00 | 0.00 | 40 | 1011.4 |